QPF
0.00 0.00 0.00 0.00 0.00 0.00 0.00 0.00 0.00 0.00 0.00 0.00 0.00 0.00 0.00 0.00 0.00 0.00 0.00 0.00 0.00 0.00 0.00 0.00 0.00 0.00 0.00 0.00 0.00 0.00 0.00 0.00 0.00 0.02 0.07 0.13 0.16 0.17
0.00 0.00 0.00 0.00 0.00 0.00 0.00 0.00 0.00 0.00 0.00 0.00 0.00 0.00 0.00 0.00 0.00 0.00 0.00 0.00 0.00 0.00 0.00 0.00 0.00 0.00 0.00 0.00 0.00 0.00 0.00 0.00 0.00 0.00 0.01 0.05 0.12 0.18
0.00 0.00 0.00 0.00 0.00 0.00 0.00 0.00 0.00 0.00 0.00 0.00 0.00 0.00 0.00 0.00 0.00 0.00 0.00 0.00 0.00 0.00 0.00 0.00 0.00 0.00 0.00 0.00 0.00 0.00 0.00 0.00 0.00 0.00 0.00 0.02 0.06 0.14
0.00 0.00 0.00 0.00 0.00 0.00 0.00 0.01 0.01 0.01 0.01 0.00 0.00 0.00 0.00 0.00 0.00 0.00 0.00 0.00 0.00 0.00 0.00 0.00 0.00 0.00 0.00 0.00 0.00 0.00 0.00 0.00 0.01 0.01 0.00 0.01 0.04 0.13
0.00 0.00 0.00 0.00 0.00 0.00 0.00 0.01 0.01 0.01 0.02 0.02 0.01 0.01 0.01 0.00 0.00 0.00 0.00 0.00 0.00 0.00 0.00 0.00 0.00 0.00 0.00 0.00 0.00 0.00 0.00 0.00 0.00 0.00 0.01 0.01 0.02 0.06
0.00 0.00 0.00 0.00 0.00 0.00 0.00 0.00 0.01 0.01 0.02 0.02 0.02 0.03 0.02 0.01 0.00 0.00 0.00 0.00 0.00 0.00 0.00 0.00 0.00 0.00 0.00 0.00 0.00 0.00 0.00 0.00 0.00 0.01 0.01 0.01 0.02 0.04
0.00 0.00 0.00 0.01 0.01 0.01 0.01 0.00 0.00 0.00 0.01 0.01 0.01 0.01 0.01 0.00 0.00 0.00 0.00 0.00 0.00 0.00 0.00 0.00 0.00 0.00 0.00 0.00 0.00 0.00 0.00 0.00 0.00 0.01 0.01 0.01 0.02 0.04
0.00 0.00 0.00 0.01 0.01 0.02 0.02 0.01 0.00 0.00 0.00 0.01 0.01 0.00 0.00 0.00 0.00 0.00 0.00 0.00 0.00 0.00 0.00 0.00 0.00 0.00 0.00 0.00 0.00 0.00 0.00 0.00 0.00 0.01 0.02 0.03 0.04 0.05
0.00 0.00 0.00 0.00 0.00 0.00 0.01 0.00 0.00 0.00 0.00 0.00 0.01 0.01 0.01 0.00 0.00 0.00 0.00 0.00 0.00 0.00 0.00 0.00 0.00 0.00 0.00 0.00 0.00 0.00 0.00 0.00 0.01 0.02 0.03 0.05 0.07 0.08
0.00 0.00 0.00 0.00 0.00 0.00 0.00 0.00 0.00 0.00 0.00 0.00 0.00 0.00 0.00 0.00 0.00 0.00 0.00 0.00 0.00 0.00 0.00 0.00 0.00 0.00 0.00 0.00 0.00 0.00 0.00 0.00 0.01 0.02 0.03 0.06 0.09 0.10
0.00 0.00 0.00 0.00 0.00 0.00 0.00 0.00 0.00 0.00 0.00 0.00 0.00 0.00 0.00 0.00 0.00 0.00 0.00 0.00 0.00 0.00 0.00 0.00 0.00 0.00 0.00 0.00 0.00 0.00 0.00 0.00 0.00 0.01 0.03 0.06 0.11 0.15
0.00 0.00 0.00 0.00 0.00 0.00 0.00 0.00 0.00 0.00 0.00 0.00 0.00 0.00 0.00 0.00 0.00 0.00 0.00 0.00 0.00 0.00 0.00 0.00 0.00 0.00 0.00 0.00 0.00 0.00 0.00 0.00 0.00 0.01 0.02 0.05 0.10 0.16
0.00 0.00 0.00 0.00 0.00 0.00 0.00 0.00 0.00 0.00 0.00 0.00 0.00 0.00 0.00 0.00 0.00 0.00 0.00 0.00 0.00 0.00 0.00 0.00 0.00 0.00 0.00 0.00 0.00 0.00 0.00 0.00 0.00 0.01 0.01 0.03 0.06 0.12
0.00 0.00 0.00 0.00 0.00 0.00 0.00 0.00 0.00 0.00 0.00 0.00 0.00 0.00 0.00 0.00 0.00 0.00 0.00 0.00 0.00 0.00 0.00 0.00 0.00 0.00 0.00 0.00 0.00 0.00 0.00 0.00 0.00 0.00 0.01 0.01 0.02 0.05
0.00 0.00 0.00 0.00 0.00 0.00 0.00 0.00 0.00 0.00 0.00 0.00 0.00 0.00 0.00 0.00 0.00 0.00 0.00 0.00 0.00 0.00 0.00 0.00 0.00 0.00 0.00 0.01 0.01 0.00 0.00 0.00 0.00 0.00 0.00 0.00 0.01 0.02
0.00 0.00 0.00 0.00 0.00 0.00 0.00 0.00 0.00 0.00 0.00 0.00 0.00 0.00 0.00 0.00 0.00 0.00 0.00 0.00 0.00 0.00 0.00 0.00 0.00 0.00 0.00 0.00 0.00 0.00 0.00 0.00 0.00 0.00 0.00 0.00 0.00 0.00
0.00 0.00 0.00 0.00 0.00 0.00 0.00 0.00 0.00 0.00 0.00 0.00 0.00 0.00 0.00 0.00 0.00 0.00 0.00 0.00 0.00 0.00 0.00 0.00 0.00 0.00 0.00 0.00 0.00 0.00 0.00 0.00 0.00 0.00 0.00 0.00 0.00 0.00
0.00 0.00 0.00 0.00 0.00 0.00 0.00 0.00 0.00 0.00 0.00 0.00 0.00 0.00 0.00 0.00 0.00 0.00 0.00 0.00 0.00 0.00 0.00 0.00 0.00 0.00 0.00 0.00 0.00 0.00 0.00 0.00 0.00 0.00 0.00 0.00 0.00 0.00
0.00 0.00 0.00 0.00 0.00 0.00 0.00 0.00 0.00 0.00 0.00 0.00 0.00 0.00 0.00 0.00 0.00 0.00 0.00 0.00 0.00 0.00 0.00 0.00 0.00 0.00 0.01 0.00 0.00 0.00 0.00 0.00 0.00 0.00 0.00 0.01 0.00 0.00
0.00 0.00 0.00 0.00 0.00 0.00 0.00 0.00 0.00 0.00 0.00 0.00 0.00 0.00 0.00 0.00 0.00 0.00 0.00 0.00 0.00 0.00 0.00 0.00 0.00 0.00 0.01 0.02 0.01 0.00 0.00 0.00 0.00 0.00 0.00 0.01 0.01 0.00
0.00 0.00 0.00 0.00 0.00 0.00 0.00 0.00 0.00 0.00 0.00 0.00 0.00 0.00 0.00 0.00 0.00 0.00 0.00 0.00 0.00 0.00 0.00 0.00 0.00 0.00 0.01 0.02 0.02 0.00 0.00 0.00 0.00 0.00 0.00 0.01 0.01 0.01
0.00 0.00 0.00 0.00 0.00 0.00 0.00 0.00 0.00 0.00 0.00 0.00 0.00 0.00 0.00 0.00 0.00 0.00 0.00 0.00 0.00 0.00 0.00 0.00 0.00 0.00 0.01 0.03 0.02 0.01 0.00 0.00 0.00 0.00 0.00 0.01 0.02 0.02
0.00 0.00 0.00 0.00 0.00 0.00 0.00 0.00 0.00 0.00 0.00 0.00 0.00 0.00 0.00 0.00 0.00 0.00 0.00 0.00 0.00 0.01 0.01 0.01 0.00 0.00 0.01 0.01 0.02 0.01 0.00 0.00 0.00 0.00 0.00 0.00 0.01 0.01
MSLP
1009.62 1009.74 1009.92 1010.15 1010.39 1010.62 1010.81 1010.95 1011.04 1011.11 1011.16 1011.22 1011.31 1011.43 1011.59 1011.77 1011.95 1012.13 1012.30 1012.43 1012.54 1012.63 1012.69 1012.75 1012.79 1012.82 1012.84 1012.83 1012.80 1012.75 1012.66 1012.56 1012.45 1012.34 1012.25 1012.19 1012.16 1012.17
1009.68 1009.75 1009.89 1010.07 1010.27 1010.45 1010.60 1010.71 1010.77 1010.80 1010.82 1010.85 1010.92 1011.03 1011.19 1011.38 1011.60 1011.83 1012.04 1012.24 1012.41 1012.55 1012.66 1012.74 1012.79 1012.83 1012.83 1012.81 1012.76 1012.69 1012.59 1012.47 1012.34 1012.21 1012.09 1011.99 1011.90 1011.85
1009.83 1009.87 1009.96 1010.09 1010.23 1010.36 1010.47 1010.53 1010.54 1010.53 1010.52 1010.52 1010.56 1010.67 1010.83 1011.04 1011.30 1011.57 1011.84 1012.10 1012.32 1012.50 1012.63 1012.72 1012.77 1012.79 1012.77 1012.73 1012.66 1012.56 1012.45 1012.33 1012.20 1012.06 1011.93 1011.79 1011.66 1011.54
1010.10 1010.12 1010.17 1010.26 1010.35 1010.43 1010.47 1010.48 1010.45 1010.40 1010.34 1010.31 1010.34 1010.43 1010.60 1010.83 1011.12 1011.43 1011.75 1012.04 1012.29 1012.48 1012.62 1012.70 1012.72 1012.70 1012.64 1012.55 1012.45 1012.34 1012.23 1012.11 1011.99 1011.86 1011.73 1011.58 1011.41 1011.23
1010.48 1010.49 1010.53 1010.58 1010.63 1010.67 1010.66 1010.62 1010.55 1010.45 1010.36 1010.31 1010.31 1010.39 1010.56 1010.80 1011.11 1011.44 1011.77 1012.08 1012.33 1012.52 1012.63 1012.67 1012.64 1012.55 1012.44 1012.31 1012.17 1012.03 1011.91 1011.80 1011.70 1011.59 1011.46 1011.31 1011.13 1010.91
1010.95 1010.97 1011.00 1011.03 1011.06 1011.06 1011.03 1010.95 1010.83 1010.70 1010.58 1010.50 1010.49 1010.56 1010.72 1010.96 1011.27 1011.60 1011.93 1012.23 1012.47 1012.62 1012.68 1012.65 1012.55 1012.40 1012.22 1012.02 1011.84 1011.67 1011.54 1011.43 1011.34 1011.25 1011.15 1011.00 1010.80 1010.55
1011.47 1011.51 1011.54 1011.57 1011.59 1011.57 1011.51 1011.41 1011.27 1011.12 1010.98 1010.88 1010.85 1010.91 1011.06 1011.29 1011.58 1011.91 1012.22 1012.49 1012.69 1012.79 1012.79 1012.70 1012.52 1012.29 1012.03 1011.76 1011.53 1011.33 1011.17 1011.06 1010.97 1010.89 1010.79 1010.64 1010.43 1010.15
1012.01 1012.05 1012.09 1012.13 1012.15 1012.12 1012.06 1011.94 1011.79 1011.63 1011.48 1011.38 1011.34 1011.39 1011.52 1011.74 1012.02 1012.31 1012.60 1012.84 1012.99 1013.05 1012.99 1012.83 1012.58 1012.27 1011.94 1011.61 1011.31 1011.07 1010.87 1010.73 1010.63 1010.53 1010.42 1010.26 1010.03 1009.71
1012.50 1012.55 1012.61 1012.66 1012.68 1012.66 1012.60 1012.49 1012.35 1012.19 1012.04 1011.93 1011.89 1011.93 1012.06 1012.26 1012.52 1012.79 1013.05 1013.26 1013.38 1013.39 1013.28 1013.07 1012.77 1012.41 1012.01 1011.62 1011.27 1010.96 1010.71 1010.52 1010.37 1010.23 1010.07 1009.87 1009.60 1009.25
1012.94 1013.00 1013.06 1013.12 1013.15 1013.15 1013.10 1013.01 1012.88 1012.74 1012.60 1012.50 1012.46 1012.50 1012.62 1012.81 1013.04 1013.30 1013.53 1013.71 1013.81 1013.79 1013.66 1013.43 1013.09 1012.69 1012.26 1011.82 1011.41 1011.04 1010.73 1010.47 1010.24 1010.03 1009.80 1009.53 1009.20 1008.79
1013.32 1013.38 1013.45 1013.52 1013.57 1013.59 1013.56 1013.49 1013.39 1013.27 1013.15 1013.06 1013.03 1013.07 1013.18 1013.35 1013.56 1013.79 1014.01 1014.17 1014.25 1014.23 1014.10 1013.85 1013.51 1013.10 1012.64 1012.17 1011.71 1011.29 1010.90 1010.56 1010.24 1009.94 1009.62 1009.26 1008.84 1008.36
1013.66 1013.72 1013.80 1013.88 1013.95 1013.99 1013.99 1013.95 1013.87 1013.78 1013.69 1013.62 1013.59 1013.62 1013.72 1013.87 1014.06 1014.26 1014.45 1014.60 1014.67 1014.64 1014.51 1014.28 1013.95 1013.55 1013.09 1012.60 1012.11 1011.64 1011.19 1010.76 1010.35 1009.95 1009.53 1009.07 1008.57 1008.01
1013.98 1014.04 1014.13 1014.23 1014.32 1014.39 1014.42 1014.41 1014.36 1014.30 1014.23 1014.17 1014.15 1014.17 1014.24 1014.36 1014.51 1014.68 1014.83 1014.95 1015.01 1014.98 1014.86 1014.64 1014.33 1013.94 1013.50 1013.01 1012.51 1012.00 1011.50 1011.01 1010.52 1010.03 1009.52 1008.98 1008.39 1007.77
1014.30 1014.37 1014.47 1014.58 1014.69 1014.78 1014.84 1014.87 1014.86 1014.82 1014.77 1014.73 1014.70 1014.71 1014.75 1014.82 1014.92 1015.04 1015.14 1015.22 1015.24 1015.20 1015.07 1014.86 1014.57 1014.21 1013.78 1013.31 1012.80 1012.28 1011.75 1011.21 1010.67 1010.12 1009.55 1008.94 1008.31 1007.63
1014.61 1014.68 1014.79 1014.92 1015.05 1015.17 1015.26 1015.32 1015.34 1015.34 1015.31 1015.28 1015.25 1015.23 1015.23 1015.25 1015.29 1015.33 1015.37 1015.38 1015.36 1015.27 1015.13 1014.91 1014.63 1014.28 1013.87 1013.41 1012.92 1012.40 1011.86 1011.31 1010.75 1010.17 1009.56 1008.93 1008.27 1007.58
1014.89 1014.97 1015.08 1015.22 1015.37 1015.51 1015.63 1015.72 1015.78 1015.81 1015.81 1015.79 1015.75 1015.71 1015.67 1015.64 1015.61 1015.57 1015.53 1015.46 1015.37 1015.23 1015.04 1014.80 1014.51 1014.15 1013.75 1013.31 1012.83 1012.33 1011.80 1011.25 1010.69 1010.11 1009.51 1008.89 1008.23 1007.54
1015.13 1015.19 1015.30 1015.44 1015.60 1015.76 1015.91 1016.04 1016.14 1016.20 1016.23 1016.23 1016.19 1016.14 1016.06 1015.97 1015.87 1015.76 1015.63 1015.48 1015.31 1015.10 1014.85 1014.57 1014.24 1013.87 1013.46 1013.02 1012.55 1012.05 1011.54 1011.02 1010.47 1009.91 1009.34 1008.74 1008.11 1007.45
1015.28 1015.33 1015.43 1015.56 1015.73 1015.90 1016.08 1016.24 1016.37 1016.47 1016.53 1016.55 1016.53 1016.46 1016.36 1016.24 1016.08 1015.90 1015.70 1015.47 1015.21 1014.93 1014.62 1014.27 1013.90 1013.49 1013.06 1012.60 1012.12 1011.63 1011.12 1010.60 1010.08 1009.54 1008.99 1008.42 1007.83 1007.21
1015.36 1015.38 1015.46 1015.59 1015.74 1015.93 1016.12 1016.30 1016.47 1016.60 1016.69 1016.73 1016.72 1016.67 1016.56 1016.41 1016.21 1015.98 1015.72 1015.43 1015.10 1014.75 1014.37 1013.97 1013.54 1013.08 1012.61 1012.11 1011.61 1011.09 1010.57 1010.04 1009.52 1008.99 1008.45 1007.91 1007.34 1006.75
1015.39 1015.39 1015.43 1015.54 1015.69 1015.87 1016.06 1016.25 1016.43 1016.58 1016.70 1016.76 1016.77 1016.72 1016.61 1016.45 1016.24 1015.98 1015.68 1015.35 1014.97 1014.57 1014.14 1013.68 1013.19 1012.68 1012.15 1011.61 1011.05 1010.49 1009.93 1009.38 1008.83 1008.28 1007.74 1007.19 1006.64 1006.07
1015.41 1015.37 1015.40 1015.47 1015.59 1015.75 1015.93 1016.11 1016.29 1016.44 1016.55 1016.62 1016.63 1016.59 1016.49 1016.32 1016.11 1015.84 1015.53 1015.17 1014.77 1014.34 1013.87 1013.37 1012.84 1012.28 1011.69 1011.09 1010.48 1009.86 1009.25 1008.64 1008.04 1007.46 1006.89 1006.32 1005.76 1005.21
1015.45 1015.39 1015.38 1015.43 1015.51 1015.63 1015.77 1015.91 1016.05 1016.17 1016.26 1016.31 1016.31 1016.25 1016.14 1015.98 1015.76 1015.50 1015.19 1014.83 1014.42 1013.98 1013.50 1012.97 1012.41 1011.82 1011.19 1010.54 1009.87 1009.20 1008.53 1007.86 1007.21 1006.58 1005.97 1005.38 1004.81 1004.26
1015.52 1015.45 1015.41 1015.41 1015.45 1015.51 1015.58 1015.66 1015.73 1015.78 1015.81 1015.81 1015.77 1015.68 1015.55 1015.38 1015.15 1014.89 1014.58 1014.23 1013.84 1013.40 1012.93 1012.40 1011.84 1011.23 1010.59 1009.92 1009.22 1008.50 1007.79 1007.08 1006.39 1005.72 1005.08 1004.48 1003.91 1003.37
Thickness
5493 5495 5497 5499 5501 5503 5505 5505 5503 5504 5508 5516 5520 5526 5530 5532 5533 5534 5535 5538 5540 5544 5548 5551 5555 5559 5563 5567 5571 5575 5579 5583 5587 5591 5596 5600 5605 5610
5478 5480 5482 5484 5487 5489 5490 5492 5494 5494 5496 5503 5508 5512 5517 5521 5522 5522 5523 5526 5529 5532 5535 5538 5542 5544 5548 5552 5556 5561 5564 5568 5572 5577 5582 5586 5592 5597
5463 5466 5468 5470 5472 5474 5477 5479 5481 5484 5486 5491 5497 5500 5503 5507 5510 5511 5512 5514 5517 5521 5523 5525 5528 5531 5534 5538 5542 5546 5550 5553 5557 5562 5566 5572 5577 5583
5448 5450 5451 5454 5456 5458 5461 5465 5468 5473 5475 5479 5484 5487 5491 5495 5498 5500 5501 5502 5505 5508 5510 5512 5515 5518 5522 5526 5529 5533 5536 5540 5543 5547 5552 5557 5561 5565
5428 5430 5431 5434 5435 5438 5443 5447 5453 5460 5464 5469 5473 5476 5479 5483 5486 5487 5488 5488 5491 5494 5496 5499 5502 5506 5509 5513 5518 5522 5525 5528 5531 5534 5537 5540 5543 5547
5410 5411 5412 5414 5416 5419 5423 5426 5434 5442 5450 5456 5461 5465 5467 5471 5473 5472 5471 5472 5475 5479 5482 5486 5490 5493 5497 5502 5506 5509 5512 5515 5517 5520 5523 5525 5527 5529
5393 5394 5396 5398 5401 5403 5404 5407 5414 5421 5430 5439 5446 5451 5454 5455 5457 5458 5458 5459 5461 5465 5468 5472 5476 5481 5484 5489 5493 5497 5501 5502 5504 5506 5508 5510 5512 5513
5379 5379 5381 5382 5384 5387 5389 5393 5398 5404 5411 5419 5426 5433 5436 5439 5442 5445 5445 5445 5446 5450 5454 5458 5463 5467 5472 5478 5482 5486 5488 5490 5492 5494 5496 5498 5499 5500
5364 5364 5368 5370 5370 5372 5376 5380 5385 5391 5397 5403 5409 5414 5417 5420 5425 5427 5429 5429 5432 5437 5440 5446 5452 5457 5462 5467 5470 5473 5475 5477 5480 5481 5484 5486 5487 5488
5349 5348 5351 5354 5357 5359 5363 5370 5375 5379 5384 5389 5393 5397 5400 5403 5408 5412 5415 5418 5421 5424 5429 5433 5440 5445 5451 5454 5456 5459 5462 5463 5465 5468 5470 5472 5473 5474
5336 5335 5337 5339 5344 5347 5351 5358 5363 5366 5371 5375 5380 5385 5389 5393 5396 5398 5400 5402 5404 5407 5412 5416 5422 5428 5434 5439 5442 5444 5446 5448 5451 5454 5456 5457 5458 5459
5324 5324 5325 5326 5330 5333 5337 5341 5344 5347 5353 5359 5364 5370 5374 5378 5380 5380 5381 5382 5385 5386 5392 5395 5400 5405 5413 5422 5425 5427 5430 5433 5437 5439 5441 5442 5442 5443
5311 5311 5310 5313 5316 5320 5323 5325 5330 5334 5338 5343 5347 5352 5355 5357 5359 5360 5362 5363 5365 5367 5372 5375 5378 5382 5389 5399 5407 5409 5413 5418 5422 5426 5428 5430 5430 5429
5295 5295 5296 5299 5301 5305 5307 5312 5316 5319 5322 5325 5329 5332 5334 5336 5339 5341 5345 5347 5349 5351 5354 5358 5362 5366 5373 5381 5390 5398 5400 5402 5407 5413 5417 5420 5421 5421
5280 5282 5284 5285 5287 5290 5294 5298 5299 5301 5303 5306 5309 5312 5315 5318 5321 5324 5327 5330 5333 5336 5341 5345 5349 5354 5359 5366 5375 5383 5388 5393 5396 5402 5407 5409 5411 5413
5266 5268 5270 5273 5274 5276 5279 5280 5282 5284 5287 5288 5290 5293 5296 5300 5304 5307 5310 5314 5317 5321 5325 5330 5335 5339 5345 5352 5360 5368 5373 5379 5386 5389 5396 5403 5407 5408
5249 5251 5254 5255 5257 5258 5261 5263 5264 5266 5268 5270 5272 5275 5279 5283 5286 5290 5293 5297 5301 5304 5309 5315 5320 5325 5332 5339 5347 5354 5361 5368 5374 5381 5388 5396 5403 5405
5229 5231 5234 5236 5237 5239 5241 5243 5245 5248 5250 5252 5255 5258 5262 5265 5269 5273 5278 5282 5286 5291 5295 5300 5305 5312 5320 5329 5337 5344 5349 5356 5364 5371 5378 5386 5395 5400
5206 5208 5210 5213 5215 5217 5219 5222 5225 5228 5231 5233 5237 5240 5244 5248 5253 5257 5262 5266 5271 5277 5282 5286 5290 5295 5302 5312 5322 5329 5335 5342 5349 5356 5364 5372 5382 5392
5183 5184 5187 5190 5193 5195 5198 5201 5204 5207 5210 5214 5217 5221 5225 5230 5235 5241 5246 5251 5257 5263 5269 5273 5276 5281 5287 5298 5309 5317 5320 5327 5335 5345 5354 5364 5373 5383
5159 5162 5164 5167 5170 5172 5175 5179 5182 5186 5189 5193 5198 5202 5207 5212 5217 5223 5230 5237 5243 5249 5255 5261 5265 5270 5276 5285 5296 5308 5315 5321 5326 5335 5346 5355 5366 5375
5133 5136 5140 5144 5146 5149 5153 5157 5161 5164 5168 5172 5178 5183 5189 5195 5201 5207 5214 5221 5228 5234 5242 5249 5254 5259 5265 5274 5286 5297 5308 5317 5323 5330 5340 5349 5357 5370
5102 5107 5111 5116 5120 5125 5129 5134 5138 5143 5148 5153 5159 5165 5171 5178 5184 5191 5198 5205 5213 5221 5228 5236 5243 5250 5258 5267 5277 5288 5299 5309 5317 5327 5338 5346 5354 5365